• In Czech Republic
  • List of Countries
  • For 7 days
  • Water Temperature
  • Satellite Maps
  • Weather Map
  • Weather Widgets
  • user-avatar
    Login

    Hourly Weather Benguela

    Today, 22 June, Thursday

    Time Temperature Precipitation Wind Pressure Humidity
    00:00 +24°C° 0 mm 1 mps 760 mmHg 82%
    01:00 +24°C° 0 mm 2 mps 760 mmHg 88%
    02:00 +24°C° 0 mm 2 mps 760 mmHg 82%
    03:00 +24°C° 0 mm 2 mps 760 mmHg 75%
    04:00 +24°C° 0 mm 2 mps 760 mmHg 69%
    05:00 +24°C° 0 mm 2 mps 760 mmHg 64%
    06:00 +24°C° 0 mm 2 mps 760 mmHg 59%
    07:00 +25°C° 0 mm 2 mps 761 mmHg 55%
    08:00 +27°C° 0 mm 2 mps 761 mmHg 48%
    09:00 +29°C° 0 mm 2 mps 761 mmHg 41%
    10:00 +31°C° 0 mm 2 mps 761 mmHg 35%
    11:00 +33°C° 0 mm 3 mps 760 mmHg 35%
    12:00 +34°C° 0 mm 3 mps 760 mmHg 35%
    13:00 +35°C° 0 mm 4 mps 760 mmHg 37%
    14:00 +34°C° 0 mm 4 mps 759 mmHg 42%
    15:00 +33°C° 0 mm 3 mps 759 mmHg 46%
    16:00 +33°C° 0 mm 3 mps 758 mmHg 51%
    17:00 +29°C° 0 mm 3 mps 759 mmHg 62%
    18:00 +27°C° 0 mm 2 mps 759 mmHg 73%
    19:00 +25°C° 0 mm 1 mps 760 mmHg 85%
    20:00 +24°C° 0 mm 1 mps 760 mmHg 86%
    21:00 +24°C° 0 mm 1 mps 760 mmHg 88%
    22:00 +23°C° 0 mm 1 mps 761 mmHg 90%
    23:00 +24°C° 0 mm 2 mps 761 mmHg 89%

    Tomorrow, 23 June, Friday

    Time Temperature Precipitation Wind Pressure Humidity
    00:00 +24°C° 0 mm 2 mps 760 mmHg 87%
    01:00 +24°C° 0 mm 2 mps 760 mmHg 86%
    02:00 +24°C° 0 mm 2 mps 760 mmHg 82%
    03:00 +24°C° 0 mm 2 mps 760 mmHg 79%
    04:00 +24°C° 0 mm 3 mps 760 mmHg 75%
    05:00 +24°C° 0 mm 2 mps 760 mmHg 65%
    06:00 +24°C° 0 mm 2 mps 760 mmHg 55%
    07:00 +24°C° 0 mm 2 mps 760 mmHg 46%
    08:00 +27°C° 0 mm 2 mps 760 mmHg 37%
    09:00 +31°C° 0 mm 2 mps 760 mmHg 28%
    10:00 +35°C° 0 mm 3 mps 760 mmHg 20%
    11:00 +36°C° 0 mm 3 mps 760 mmHg 20%
    12:00 +37°C° 0 mm 3 mps 759 mmHg 21%
    13:00 +38°C° 0 mm 4 mps 758 mmHg 22%
    14:00 +37°C° 0 mm 4 mps 758 mmHg 27%
    15:00 +36°C° 0 mm 4 mps 758 mmHg 32%
    16:00 +35°C° 0 mm 4 mps 757 mmHg 37%
    17:00 +31°C° 0 mm 3 mps 758 mmHg 48%
    18:00 +29°C° 0 mm 2 mps 758 mmHg 59%
    19:00 +26°C° 0 mm 2 mps 758 mmHg 70%
    20:00 +25°C° 0 mm 1 mps 759 mmHg 72%
    21:00 +25°C° 0 mm 1 mps 759 mmHg 73%
    22:00 +25°C° 0 mm 1 mps 759 mmHg 74%
    23:00 +25°C° 0 mm 2 mps 759 mmHg 72%

    Day after tomorrow, 24 June, Saturday

    Time Temperature Precipitation Wind Pressure Humidity
    00:00 +24°C° 0 mm 2 mps 759 mmHg 70%
    01:00 +24°C° 0 mm 2 mps 759 mmHg 67%
    02:00 +24°C° 0 mm 2 mps 759 mmHg 65%
    03:00 +24°C° 0 mm 2 mps 758 mmHg 63%
    04:00 +24°C° 0 mm 2 mps 758 mmHg 60%
    05:00 +25°C° 0 mm 2 mps 758 mmHg 55%
    06:00 +25°C° 0 mm 2 mps 759 mmHg 50%
    07:00 +25°C° 0 mm 2 mps 759 mmHg 45%
    08:00 +28°C° 0 mm 2 mps 759 mmHg 36%
    09:00 +31°C° 0 mm 2 mps 759 mmHg 28%
    10:00 +35°C° 0 mm 2 mps 760 mmHg 20%
    11:00 +36°C° 0 mm 3 mps 759 mmHg 20%
    12:00 +37°C° 0 mm 3 mps 758 mmHg 21%
    13:00 +38°C° 0 mm 4 mps 757 mmHg 21%
    14:00 +37°C° 0 mm 4 mps 757 mmHg 24%
    15:00 +37°C° 0 mm 4 mps 756 mmHg 27%
    16:00 +36°C° 0 mm 4 mps 756 mmHg 29%
    17:00 +33°C° 0 mm 3 mps 756 mmHg 38%
    18:00 +30°C° 0 mm 3 mps 757 mmHg 46%
    19:00 +27°C° 0 mm 2 mps 757 mmHg 54%
    20:00 +26°C° 0 mm 2 mps 758 mmHg 56%
    21:00 +26°C° 0 mm 2 mps 758 mmHg 58%
    22:00 +25°C° 0 mm 1 mps 759 mmHg 60%
    23:00 +25°C° 0 mm 2 mps 758 mmHg 60%

    25 June, Sunday

    Time Temperature Precipitation Wind Pressure Humidity
    00:00 +25°C° 0 mm 2 mps 758 mmHg 60%
    01:00 +24°C° 0 mm 2 mps 758 mmHg 60%
    02:00 +24°C° 0 mm 2 mps 758 mmHg 60%
    03:00 +24°C° 0 mm 2 mps 757 mmHg 60%
    04:00 +24°C° 0 mm 2 mps 757 mmHg 60%
    05:00 +24°C° 0 mm 2 mps 758 mmHg 59%
    06:00 +24°C° 0 mm 1 mps 758 mmHg 59%
    07:00 +24°C° 0 mm 1 mps 758 mmHg 58%
    08:00 +27°C° 0 mm 1 mps 758 mmHg 49%
    09:00 +30°C° 0 mm 1 mps 759 mmHg 40%
    10:00 +33°C° 0 mm 1 mps 759 mmHg 31%
    11:00 +35°C° 0 mm 2 mps 758 mmHg 29%
    12:00 +36°C° 0 mm 3 mps 757 mmHg 27%
    13:00 +37°C° 0 mm 3 mps 757 mmHg 26%
    14:00 +37°C° 0 mm 4 mps 756 mmHg 28%
    15:00 +36°C° 0 mm 4 mps 756 mmHg 30%
    16:00 +36°C° 0 mm 4 mps 755 mmHg 33%
    17:00 +33°C° 0 mm 3 mps 756 mmHg 41%
    18:00 +29°C° 0 mm 3 mps 757 mmHg 50%
    19:00 +27°C° 0 mm 2 mps 757 mmHg 58%
    20:00 +26°C° 0 mm 2 mps 758 mmHg 61%
    21:00 +25°C° 0 mm 2 mps 758 mmHg 64%
    22:00 +25°C° 0 mm 1 mps 758 mmHg 68%
    23:00 +24°C° 0 mm 2 mps 758 mmHg 66%

    26 June, Monday

    Time Temperature Precipitation Wind Pressure Humidity
    00:00 +24°C° 0 mm 2 mps 758 mmHg 65%
    01:00 +24°C° 0 mm 2 mps 758 mmHg 64%
    02:00 +24°C° 0 mm 2 mps 757 mmHg 62%
    03:00 +24°C° 0 mm 2 mps 757 mmHg 61%
    04:00 +24°C° 0 mm 2 mps 757 mmHg 60%
    05:00 +24°C° 0 mm 2 mps 757 mmHg 57%
    06:00 +25°C° 0 mm 2 mps 758 mmHg 55%
    07:00 +25°C° 0 mm 1 mps 758 mmHg 52%
    08:00 +28°C° 0 mm 1 mps 758 mmHg 43%
    09:00 +31°C° 0 mm 2 mps 758 mmHg 34%
    10:00 +35°C° 0 mm 2 mps 759 mmHg 26%
    11:00 +36°C° 0 mm 2 mps 758 mmHg 25%
    12:00 +37°C° 0 mm 3 mps 757 mmHg 24%
    13:00 +38°C° 0 mm 4 mps 757 mmHg 23%
    14:00 +38°C° 0 mm 4 mps 757 mmHg 25%
    15:00 +37°C° 0 mm 4 mps 756 mmHg 27%
    16:00 +36°C° 0 mm 4 mps 756 mmHg 30%
    17:00 +33°C° 0 mm 4 mps 757 mmHg 37%
    18:00 +30°C° 0 mm 3 mps 757 mmHg 44%
    19:00 +27°C° 0 mm 3 mps 758 mmHg 51%
    20:00 +27°C° 0 mm 2 mps 759 mmHg 52%
    21:00 +26°C° 0 mm 2 mps 759 mmHg 53%
    22:00 +26°C° 0 mm 2 mps 759 mmHg 54%
    23:00 +26°C° 0 mm 2 mps 759 mmHg 54%

    27 June, Tuesday

    Time Temperature Precipitation Wind Pressure Humidity
    00:00 +25°C° 0 mm 2 mps 759 mmHg 55%
    01:00 +25°C° 0 mm 2 mps 759 mmHg 55%
    02:00 +25°C° 0 mm 2 mps 759 mmHg 52%
    03:00 +25°C° 0 mm 2 mps 758 mmHg 49%
    04:00 +26°C° 0 mm 3 mps 758 mmHg 46%
    05:00 +26°C° 0 mm 3 mps 759 mmHg 44%
    06:00 +26°C° 0 mm 2 mps 759 mmHg 42%
    07:00 +26°C° 0 mm 2 mps 759 mmHg 40%
    08:00 +29°C° 0 mm 2 mps 759 mmHg 34%
    09:00 +32°C° 0 mm 2 mps 760 mmHg 28%
    10:00 +36°C° 0 mm 2 mps 760 mmHg 21%
    11:00 +37°C° 0 mm 3 mps 759 mmHg 21%
    12:00 +38°C° 0 mm 3 mps 759 mmHg 20%
    13:00 +40°C° 0 mm 4 mps 758 mmHg 19%
    14:00 +38°C° 0 mm 4 mps 758 mmHg 21%
    15:00 +38°C° 0 mm 4 mps 757 mmHg 22%
    16:00 +37°C° 0 mm 5 mps 757 mmHg 24%
    17:00 +34°C° 0 mm 4 mps 758 mmHg 29%
    18:00 +31°C° 0 mm 3 mps 758 mmHg 35%
    19:00 +28°C° 0 mm 3 mps 759 mmHg 40%
    20:00 +28°C° 0 mm 3 mps 759 mmHg 40%
    21:00 +28°C° 0 mm 3 mps 759 mmHg 39%
    22:00 +27°C° 0 mm 3 mps 760 mmHg 39%
    23:00 +27°C° 0 mm 2 mps 759 mmHg 39%
    Show more